Regional Weather Roundup
Issued by NWS Tiyan, Guam

Home | Current Version | Previous Version | Text Only | Print | Product List | Glossary On
Versions: 1 2 3 4 5 6 7 8 9 10 11 12 13 14 15 16 17 18 19 20 21 22 23 24 25 26 27 28 29 30 31 32 33 34 35 36 37 38 39 40 41 42 43 44 45 46 47 48 49 50
000
ASGM40 PGUM 282310
RWRGUM
WEATHER ROUNDUP FOR THE MARIANAS
NATIONAL WEATHER SERVICE TIYAN GU
900 AM CHST SAT AUG 29 2015

GUZ001>004-290000-
MARIANA ISLANDS-

CITY           SKY/WX    TMP DP  RH WIND       PRES   REMARKS
GUAM AIRPORT   PTSUNNY   84  75  74 NW3       29.84R HX  92
ANDERSEN AFB   SUNNY     84  75  74 N6        29.85R HX  92
ROTA AIRPORT   MOSUNNY   82  77  83 VRB6      29.84R HX  91
TINIAN AP      MOSUNNY   84  77  79 NW6       29.80S HX  94
SAIPAN AP      MOSUNNY   82  79  89 NW3       29.82R HX  93

$$



USA.gov is the U.S. government's official web portal to all federal, state and local government web resources and services.